Location: D�nkelhammer
(50.0226°N, 12.0223°E)
Time: 01:58:22
(UTC+00:00)

Daily predictions for brighter satellites

Satellite Brightness Start Highest point End
(mag) Time Altitude Azimuth Time Altitude Azimuth Time Altitude Azimuth
Cosmos 1943 Rocket 4.4 01:56:19 20° ENE 01:56:19 20° ENE 01:58:52 10° E
ATLAS 2AS CENTAUR R/B 4.3 01:59:42 30° NNW 02:00:15 30° N 02:06:51 10° NE
ATLAS CENTAUR R/B 4.4 02:16:07 15° ENE 02:16:07 15° ENE 02:16:56 10° NE
SL-16 R/B 3.8 02:19:42 30° E 02:19:42 30° E 02:23:30 10° NE
ADEOS II 4.4 02:19:39 10° N 02:20:47 17° N 02:20:47 17° N
Cosmos 2369 Rocket 3.8 02:24:49 27° NNE 02:26:27 31° NE 02:31:29 10° ESE
IDEFIX/ARIANE 42P 4.3 02:21:55 10° NNE 02:24:45 30° NE 02:24:45 30° NE
Cosmos 2333 Rocket 3.9 02:55:44 23° N 02:55:44 23° N 02:58:33 10° NNE
USA 215 3.2 02:47:48 10° ENE 02:54:03 78° N 02:54:03 78° N
ADEOS 4.3 02:53:45 10° NNE 02:58:49 48° E 02:58:57 48° ESE
Meteor 2-10 Rocket 3.7 03:16:51 69° NE 03:16:51 69° NE 03:21:30 10° NNE
Cosmos 1934 Rocket 4.3 03:10:23 10° NNW 03:15:16 55° NNW 03:15:16 55° NNW
NOSS 3-1 (A) 4.3 03:19:35 51° SSW 03:19:35 51° SSW 03:26:41 10° SSE
Cosmos 2237 Rocket 3.1 03:19:53 36° NNW 03:19:53 36° NNW 03:23:48 10° NNE
CZ-4C R/B 2.9 03:21:54 44° NNW 03:21:54 44° NNW 03:27:39 10° NE
Cosmos 2221 4.3 03:19:42 14° SE 03:22:42 30° E 03:26:28 10° NNE
Cosmos 2219 Rocket 3.9 03:26:42 20° NNW 03:26:42 20° NNW 03:29:52 10° N
USA 267 4.4 03:23:35 10° SSE 03:26:50 27° S 03:26:50 27° S
Cosmos 1943 Rocket 1.9 03:37:56 63° NW 03:38:51 81° WSW 03:44:21 10° SSE
Cosmos 2360 Rocket 4.4 03:39:41 11° NNW 03:40:07 11° NNW 03:41:43 10° N
Meteor 1-31 Rocket 3.8 03:36:46 10° NNE 03:40:26 44° E 03:41:21 37° SE
Cosmos 1605 Rocket 3.8 03:36:30 10° NNW 03:42:45 73° W 03:48:50 10° S
Lacrosse 5 2.3 03:45:18 47° S 03:45:18 47° S 03:49:19 10° SE
NOSS 2-1 (C) 4.2 03:46:03 38° NNE 03:46:03 38° NNE 03:48:45 10° NE
CZ-4B R/B 3.9 03:42:56 10° NNE 03:46:26 39° E 03:48:09 24° SSE
NOSS 2-1 (D) 4.1 03:50:02 39° NNE 03:50:02 39° NNE 03:52:50 10° NE
STARLINK-1131 4.5 03:51:41 35° NE 03:51:41 35° NE 03:53:56 10° ENE
ATLAS CENTAUR R/B 2.2 03:52:19 43° NNW 03:52:19 43° NNW 03:56:01 10° NNE
COSMOS 2428 4.5 03:52:41 17° NNW 03:52:41 17° NNW 03:56:21 10° N
STARLINK-1190 4.3 03:53:55 37° NE 03:53:55 37° NE 03:56:17 10° ENE
ATLAS 2AS CENTAUR R/B 4.1 03:47:08 13° NW 03:53:25 37° NNE 04:00:10 10° E
ALOS 3.9 03:51:03 10° NNE 03:55:20 34° E 03:59:36 10° SSE
PAYLOAD A 3.8 03:53:09 10° N 03:57:59 64° WNW 03:58:46 55° WSW
Cosmos 1153 Rocket 4.3 03:52:44 10° N 03:58:56 83° W 04:05:03 10° S
MSX 4.0 03:53:51 10° N 03:59:22 51° WNW 04:00:17 46° W
CZ-2C R/B 2.4 03:54:30 10° N 03:59:42 73° WNW 04:01:40 38° SSW
SL-16 R/B 2.4 04:01:35 46° W 04:02:24 49° NW 04:07:56 10° NNE
ADEOS II 4.3 04:01:28 10° NNW 04:01:44 11° NNW 04:01:44 11° NNW
Cosmos 2251 Rocket 3.7 04:03:08 47° WNW 04:03:34 48° WNW 04:08:44 10° NNE
Cosmos 1356 Rocket 4.1 04:06:32 38° NNW 04:06:32 38° NNW 04:09:31 10° N
Cosmos 1869 4.1 04:02:12 10° S 04:06:04 51° E 04:09:55 10° NNE
IDEFIX/ARIANE 42P 3.6 04:01:53 10° N 04:05:34 29° NW 04:05:34 29° NW
Sich 1 4.5 04:02:24 10° N 04:06:26 38° ENE 04:10:27 10° SE
Cosmos 1805 Rocket 4.4 04:02:17 10° N 04:06:32 51° ENE 04:10:45 10° SSE
Cosmos 1633 3.3 04:05:42 10° N 04:09:18 54° ENE 04:12:52 10° SSE
BREEZE-M DEB (TANK) 3.3 04:09:15 43° W 04:10:45 68° SSW 04:23:36 10° ESE
Cosmos 2369 Rocket 2.2 04:06:40 18° NW 04:10:52 61° WSW 04:16:28 10° SSE
H-2A R/B 2.5 04:06:34 10° NNE 04:11:00 88° ESE 04:15:05 12° SSW
Meteor PRIRODA 4.2 04:08:00 10° NNE 04:11:41 59° ESE 04:15:18 10° S
Spot 2 3.9 04:08:08 10° N 04:12:09 57° WNW 04:12:30 55° W
SKYMED 2 3.7 04:07:53 10° SSE 04:12:13 77° ENE 04:16:35 10° N
STARLINK-1118 4.3 04:12:48 26° SE 04:12:48 26° SE 04:14:35 10° E
Cosmos 1727 Rocket 3.9 04:07:38 10° SSW 04:13:50 81° W 04:20:04 10° N
Cosmos 1500 Rocket 3.4 04:09:26 10° NNW 04:13:51 66° W 04:18:12 10° S
STARLINK-1129 3.5 04:16:13 48° N 04:16:25 49° N 04:19:38 10° E
Cosmos 2173 Rocket 4.0 04:10:44 10° N 04:17:05 83° E 04:23:18 10° S
STARLINK-1134 3.5 04:18:18 48° NNW 04:18:36 49° N 04:21:49 10° E
Cosmos 1603 3.8 04:13:19 11° SSW 04:18:48 80° ESE 04:24:30 10° NNE
Cosmos 1656 Rocket 3.7 04:13:53 10° NNW 04:19:36 83° ENE 04:25:18 10° SSE
STARLINK-1135 3.5 04:20:42 46° NNW 04:21:06 50° N 04:24:19 10° E
Cosmos 1943 3.5 04:17:11 10° SSW 04:22:45 68° ESE 04:28:22 10° NNE
STARLINK-1141 3.5 04:22:57 45° NNW 04:23:26 50° N 04:26:40 10° E
Aureole 2 Rocket 3.6 04:25:20 25° S 04:25:20 25° S 04:26:53 10° S
STARLINK-1140 3.5 04:25:13 44° NNW 04:25:49 51° N 04:29:02 10° E
Cosmos 1743 Rocket 3.7 04:22:14 10° NNW 04:26:23 45° W 04:30:30 10° SSW
CZ-4B R/B 4.0 04:22:08 10° N 04:26:24 62° WNW 04:30:00 15° SSW
Cosmos 2263 4.2 04:21:56 10° NW 04:27:34 61° WSW 04:33:05 10° SSE
STARLINK-1156 3.5 04:27:27 42° NW 04:28:09 51° N 04:31:23 10° E
STARLINK-1149 3.1 04:28:43 47° N 04:28:54 48° N 04:31:36 10° E
Okean O Rocket 3.5 04:25:37 10° NNE 04:29:34 32° E 04:33:27 10° SSE
STARLINK-1148 3.5 04:29:44 40° NW 04:30:31 52° N 04:33:45 10° E
STARLINK-1153 3.2 04:31:48 43° NNW 04:32:18 50° N 04:35:10 10° E
STARLINK-1180 3.2 04:32:00 43° NNW 04:32:30 50° N 04:35:24 10° E
STARLINK-1158 3.5 04:31:58 38° NW 04:32:51 52° N 04:36:07 10° E
STARLINK-1174 3.2 04:32:27 43° NNW 04:32:58 50° N 04:35:50 10° E
STARLINK-1139 3.2 04:32:41 43° NNW 04:33:12 50° N 04:36:04 10° E
STARLINK-1133 3.2 04:32:54 43° NNW 04:33:26 50° N 04:36:18 10° E
STARLINK-1151 3.2 04:33:08 42° NNW 04:33:40 50° N 04:36:32 10° E
Cosmos 2100 Rocket 3.9 04:27:59 10° NNW 04:34:12 72° W 04:40:19 10° S
STARLINK-1160 3.2 04:33:46 42° NNW 04:34:20 50° N 04:37:13 10° E
STARLINK-1161 3.2 04:33:58 42° NNW 04:34:33 50° N 04:37:25 10° E
STARLINK-1145 3.2 04:34:12 42° NNW 04:34:47 50° N 04:37:39 10° E
SJ-12 4.0 04:30:41 10° NNE 04:34:50 78° ESE 04:38:59 10° S
STARLINK-1172 3.2 04:34:24 41° NNW 04:34:59 51° N 04:37:52 10° E
STARLINK-1182 3.2 04:34:50 41° NNW 04:35:27 51° N 04:38:20 10° E
STARLINK-1164 3.2 04:35:03 41° NNW 04:35:40 51° N 04:38:33 10° E
STARLINK-1168 3.2 04:35:16 41° NW 04:35:54 51° N 04:38:46 10° E
Shenzhou-11 Module 4.1 04:35:31 13° S 04:36:07 14° SSE 04:37:36 10° SE
NOSS 2-1 (E) 4.1 04:35:42 28° NW 04:36:20 30° NNW 04:40:01 10° NNE
STARLINK-1183 3.2 04:35:55 40° NW 04:36:35 51° NNE 04:39:27 10° E
STARLINK-1181 3.2 04:36:08 40° NW 04:36:47 51° N 04:39:40 10° E
USA 215 3.7 04:30:46 10° ENE 04:37:03 51° N 04:41:24 20° WNW
STARLINK-1196 3.2 04:36:47 39° NW 04:37:28 51° N 04:40:22 10° E
STARLINK-1186 3.2 04:37:12 39° NW 04:37:55 51° N 04:40:47 10° E
STARLINK-1185 3.2 04:37:26 39° NW 04:38:09 52° N 04:41:01 10° E
ADEOS 4.4 04:33:39 10° N 04:38:10 30° WNW 04:39:45 25° W
STARLINK-1175 3.2 04:37:39 39° NW 04:38:22 52° N 04:41:15 10° E
STARLINK-1147 3.2 04:37:52 39° NW 04:38:37 52° NNE 04:41:29 10° E
STARLINK-1146 3.2 04:38:04 38° NW 04:38:49 52° N 04:41:42 10° E
STARLINK-1132 3.0 04:38:24 41° NW 04:39:01 53° NNE 04:41:47 10° E
STARLINK-1152 3.2 04:38:19 38° NW 04:39:04 52° N 04:41:57 10° E
STARLINK-1195 3.2 04:38:31 38° NW 04:39:17 52° N 04:42:10 10° E
STARLINK-1137 3.2 04:38:44 38° NW 04:39:30 52° N 04:42:23 10° E
STARLINK-1142 3.2 04:38:57 38° NW 04:39:44 52° NNE 04:42:37 10° E
Cosmos 2333 Rocket 4.3 04:38:09 10° NW 04:39:50 11° NNW 04:41:31 10° N
STARLINK-1127 3.2 04:39:09 38° NW 04:39:57 52° NNE 04:42:49 10° E
STARLINK-1184 3.2 04:39:22 37° NW 04:40:10 52° N 04:43:03 10° E
STARLINK-1193 3.2 04:39:35 37° NW 04:40:24 52° NNE 04:43:17 10° E
Cosmos 1140 Rocket 3.6 04:35:16 10° SSW 04:40:30 81° ESE 04:45:48 10° NNE
STARLINK-1194 3.2 04:39:49 37° NW 04:40:38 52° NNE 04:43:31 10° E
Meteor 2-3 Rocket 4.3 04:35:31 10° NNW 04:40:40 35° W 04:45:50 10° SSW
STARLINK-1150 3.0 04:40:36 39° NW 04:41:19 54° NNE 04:44:05 10° E
Cosmos 407 Rocket 3.4 04:36:42 10° SSW 04:42:01 75° WNW 04:47:20 10° NNE
Cosmos 1862 3.4 04:38:10 10° N 04:42:09 77° E 04:46:07 10° SSE
STARLINK-1163 3.0 04:41:50 38° NW 04:42:36 54° NNE 04:45:22 10° E
Cosmos 1842 Rocket 4.1 04:40:30 22° SW 04:42:43 36° WNW 04:46:54 10° N
Cosmos 1000 Rocket 4.4 04:37:22 10° S 04:43:33 86° W 04:49:50 10° N
STARLINK-1177 3.0 04:43:31 36° NW 04:44:21 55° NNE 04:47:07 10° E
STARLINK-1173 3.0 04:43:34 36° NW 04:44:24 55° NNE 04:47:10 10° E
GEOS 3 Rocket 3.6 04:39:29 10° NE 04:44:49 88° NW 04:50:11 10° SW
Cosmos 1459 Rocket 3.9 04:38:43 10° NNW 04:44:50 66° W 04:51:01 10° S
STARLINK-1167 3.0 04:44:01 36° NW 04:44:53 55° NNE 04:47:40 10° E
Cosmos 921 Rocket 3.3 04:41:38 10° NNW 04:45:52 44° WSW 04:50:00 10° S
Cosmos 1484 Rocket 2.9 04:42:26 10° N 04:46:17 52° WNW 04:50:10 10° SSW
BREEZE M DEB (TANK) 3.3 04:45:29 28° W 04:47:11 76° S 04:55:22 10° ESE
STARLINK-1097 4.5 04:45:44 13° SW 04:49:11 46° SSE 04:53:07 10° ENE
USA 116 3.0 04:46:35 10° S 04:49:42 77° WSW 04:52:50 10° NNW
STARLINK-1136 2.9 04:48:47 32° NW 04:49:49 58° NNE 04:52:35 10° E
Cosmos 2061 Rocket 3.9 04:45:17 10° NNW 04:51:35 80° W 04:57:48 10° S
Cosmos 1340 4.0 04:48:50 10° N 04:52:26 41° ENE 04:56:00 10° SE
STARLINK-1099 4.4 04:50:25 12° SW 04:54:02 49° SSE 04:57:59 10° ENE
STARLINK-1170 2.7 04:53:19 30° NW 04:54:21 59° NNE 04:56:58 10° E
STARLINK-1070 2.9 04:54:20 23° SW 04:55:59 67° SSE 04:58:55 10° ENE
STARLINK-1124 2.7 04:54:41 25° WSW 04:56:13 77° SSE 04:59:09 10° ENE
STARLINK-1066 2.9 04:54:55 23° SW 04:56:34 68° SSE 04:59:29 10° ENE
STARLINK-1081 2.9 04:55:08 23° SW 04:56:47 68° SSE 04:59:42 10° ENE
STARLINK-1069 2.9 04:55:34 22° SW 04:57:14 68° SSE 05:00:10 10° ENE
STARLINK-1085 2.9 04:55:46 22° SW 04:57:28 69° SSE 05:00:23 10° ENE
Cosmos 1725 Rocket 4.0 04:51:27 10° N 04:57:44 89° W 05:04:02 10° S
STARLINK-1086 2.9 04:56:03 22° SW 04:57:44 69° SSE 05:00:39 10° ENE
STARLINK-1095 2.8 04:56:13 22° SW 04:57:55 69° SSE 05:00:50 10° ENE
STARLINK-1077 2.8 04:56:24 22° SW 04:58:06 69° SSE 05:01:01 10° ENE
STARLINK-1075 2.8 04:56:39 22° SW 04:58:22 70° SSE 05:01:17 10° ENE
STARLINK-1093 2.8 04:56:52 22° SW 04:58:36 70° SSE 05:01:31 10° ENE
STARLINK-1104 4.3 04:55:03 11° SW 04:58:50 52° SSE 05:02:49 10° ENE
STARLINK-1074 2.8 04:57:06 21° SW 04:58:50 70° SSE 05:01:46 10° ENE
STARLINK-1087 2.8 04:57:18 21° SW 04:59:03 70° SSE 05:01:58 10° ENE
STARLINK-1088 2.8 04:57:29 21° SW 04:59:14 71° SSE 05:02:09 10° ENE
STARLINK-1115 2.8 04:57:44 21° SW 04:59:30 71° SSE 05:02:25 10° ENE
STARLINK-1076 2.8 04:57:57 21° SW 04:59:43 71° SSE 05:02:39 10° ENE
STARLINK-1092 2.8 04:58:10 21° SW 04:59:56 71° SSE 05:02:52 10° ENE
STARLINK-1080 2.8 04:58:22 21° SW 05:00:10 72° SSE 05:03:05 10° ENE
Cosmos 2221 3.3 04:56:38 11° SW 05:00:14 30° WNW 05:04:06 10° N
Cosmos 1633 Rocket 3.2 04:55:56 10° N 05:00:20 78° ENE 05:04:44 10° SSE
COSMO-SKYMED 1 3.1 04:56:22 10° SSW 05:00:23 37° W 05:04:27 10° NNW
STARLINK-1090 2.8 04:58:36 21° WSW 05:00:24 72° SSE 05:03:20 10° ENE
STARLINK-1089 2.8 04:58:51 21° WSW 05:00:40 72° SSE 05:03:36 10° ENE
STARLINK-1107 2.8 04:59:03 21° WSW 05:00:51 72° SSE 05:03:47 10° ENE
STARLINK-1109 2.8 04:59:14 20° WSW 05:01:04 73° SSE 05:04:00 10° ENE
STARLINK-1091 2.8 04:59:29 20° WSW 05:01:19 73° SSE 05:04:14 10° ENE
Cosmos 614 Rocket 4.2 04:56:21 10° SW 05:01:21 48° WNW 05:06:26 10° NNE
STARLINK-1072 2.8 04:59:39 20° WSW 05:01:30 73° SSE 05:04:25 10° ENE
STARLINK-1096 2.8 04:59:53 20° WSW 05:01:42 73° SSE 05:04:39 10° ENE
STARLINK-1079 2.8 05:00:06 20° WSW 05:01:57 74° SSE 05:04:53 10° ENE
STARLINK-1116 2.8 05:00:20 20° WSW 05:02:12 74° SSE 05:05:08 10° ENE
STARLINK-1094 2.8 05:00:46 20° WSW 05:02:38 74° SSE 05:05:35 10° ENE
STARLINK-1117 2.8 05:00:58 20° WSW 05:02:51 75° SSE 05:05:47 10° ENE
STARLINK-1078 2.8 05:01:12 20° WSW 05:03:06 75° SSE 05:06:02 10° ENE
STARLINK-1108 2.8 05:01:25 19° WSW 05:03:19 75° SSE 05:06:15 10° ENE
STARLINK-1144 4.2 04:59:25 10° SW 05:03:21 55° SSE 05:07:21 10° ENE
Cosmos 2123 Rocket 4.1 04:57:05 10° S 05:03:24 84° E 05:09:44 10° N
STARLINK-1071 2.8 05:01:37 19° WSW 05:03:31 75° SSE 05:06:27 10° ENE
STARLINK-1110 2.7 05:01:52 19° WSW 05:03:47 76° SSE 05:06:44 10° ENE
Cosmos 1346 Rocket 3.9 05:00:02 10° N 05:03:49 45° ENE 05:07:33 10° SSE
Cosmos 1666 Rocket 3.5 04:59:23 10° NNW 05:03:50 82° W 05:08:14 10° S
METEOR-M 4.1 04:58:43 10° N 05:04:03 68° WNW 05:09:19 10° SSW
Cosmos 2237 Rocket 4.1 05:01:42 11° NW 05:04:05 14° NNW 05:06:52 10° N
STARLINK-1122 2.7 05:02:15 19° WSW 05:04:12 76° SSE 05:07:08 10° ENE
STARLINK-1126 2.7 05:02:29 19° WSW 05:04:26 76° SSE 05:07:21 10° ENE
STARLINK-1082 2.7 05:02:42 19° WSW 05:04:40 77° SSE 05:07:36 10° ENE
STARLINK-1100 2.7 05:02:56 19° WSW 05:04:54 77° SSE 05:07:50 10° ENE
STARLINK-1162 3.2 05:02:49 19° WNW 05:04:56 65° NNE 05:08:09 10° E
STARLINK-1083 2.7 05:03:09 19° WSW 05:05:07 77° SSE 05:08:02 10° ENE
STARLINK-1125 2.7 05:03:20 19° WSW 05:05:19 77° SSE 05:08:16 10° ENE
PSLV R/B 3.9 05:03:08 10° N 05:06:44 46° WNW 05:10:22 10° SW
PAYLOAD B 4.3 05:01:22 10° NNE 05:07:00 89° ESE 05:12:34 10° SSW
STARLINK-1157 3.1 05:04:49 19° WNW 05:07:01 67° NNE 05:10:14 10° E
Cosmos 1190 Rocket 4.1 05:01:55 10° SW 05:07:07 56° WNW 05:12:22 10° NNE
STARLINK-1128 4.0 05:04:03 10° SW 05:08:02 59° SSE 05:12:01 10° ENE
STARLINK-1103 4.1 05:04:29 10° SW 05:08:30 59° SSE 05:12:33 10° ENE
STARLINK-1159 3.1 05:06:59 18° WNW 05:09:16 68° NNE 05:12:30 10° E
COSMOS 2455 4.1 05:04:02 10° NNW 05:09:41 39° NE 05:15:18 10° ESE
NOSS 3-4 (A) 4.4 05:03:48 10° NW 05:10:29 56° NE 05:17:51 10° ESE
NOSS 3-4 (C) 4.4 05:03:54 10° NW 05:10:35 56° NE 05:17:56 10° ESE
Cosmos 1238 Rocket 3.8 05:04:45 10° NNW 05:10:46 54° W 05:15:51 10° SSW
Cosmos 1802 Rocket 4.2 05:04:32 10° NNW 05:10:46 53° W 05:16:57 10° SSW
STARLINK-1171 3.1 05:09:13 17° WNW 05:11:37 70° NNE 05:14:50 10° ESE
CZ-4C R/B 3.9 05:07:04 11° WNW 05:11:41 26° N 05:17:21 10° NE
STARLINK-1113 3.9 05:08:52 10° SW 05:12:52 63° SSE 05:16:54 10° ENE
STARLINK-1101 4.0 05:09:19 10° SW 05:13:22 63° SSE 05:17:24 10° ENE
STARLINK-1155 3.1 05:11:18 16° WNW 05:13:47 71° NNE 05:17:01 10° ESE
Meteor 1-31 Rocket 4.2 05:11:51 10° NNW 05:14:35 19° WNW 05:16:45 13° WSW
Cosmos 468 Rocket 4.1 05:10:42 10° NNW 05:16:04 83° ENE 05:21:22 10° SSE
STARLINK-1166 3.1 05:13:32 15° WNW 05:16:06 73° NNE 05:19:20 10° ESE
BREEZE-M DEB (TANK) 4.2 05:12:07 10° SW 05:16:07 28° SSE 05:18:21 10° E
Cosmos 1864 Rocket 4.4 05:10:34 10° NNW 05:16:38 66° W 05:22:43 10° S
SL-08 R/B 4.4 05:10:42 10° NNW 05:16:47 64° W 05:22:46 10° S
STARLINK-1179 2.4 05:15:26 16° WNW 05:17:24 82° NNE 05:20:03 10° ESE
STARLINK-1119 3.9 05:13:35 10° SW 05:17:37 67° SSE 05:21:38 10° ENE
STARLINK-1176 2.4 05:15:58 16° WNW 05:17:58 83° NNE 05:20:40 10° ESE
STARLINK-1102 3.9 05:14:09 10° SW 05:18:12 67° SSE 05:22:17 10° ENE
STARLINK-1165 3.0 05:15:41 14° WNW 05:18:21 74° NNE 05:21:36 10° ESE
STARLINK-1169 3.0 05:17:50 14° WNW 05:20:36 76° NNE 05:23:51 10° ESE
CZ-4B R/B 4.1 05:18:39 10° NNW 05:21:18 19° WNW 05:23:55 10° WSW
Cosmos 1943 Rocket 3.7 05:19:34 11° WNW 05:21:41 14° W 05:24:24 10° SW
STARLINK-1114 3.8 05:18:07 10° WSW 05:22:10 70° SSE 05:26:13 10° ENE
STARLINK-1178 3.0 05:20:00 13° WNW 05:22:50 78° NNE 05:26:05 10° ESE
STARLINK-1111 3.8 05:19:01 10° WSW 05:23:05 70° SSE 05:27:11 10° ENE
Cosmos 676 Rocket 4.1 05:19:32 10° SW 05:24:49 64° WNW 05:30:10 10° NNE
STARLINK-1120 3.0 05:22:04 12° WNW 05:25:00 80° NNE 05:28:15 10° ESE
Lacrosse 5 3.8 05:24:37 10° W 05:26:22 12° WSW 05:28:08 10° SW
STARLINK-1130 (DARKSAT) 3.7 05:22:26 10° WSW 05:26:29 74° SSE 05:30:32 10° ENE
STARLINK-1131 3.0 05:24:16 12° WNW 05:27:16 82° NNE 05:30:33 10° ESE
STARLINK-1073 3.8 05:23:48 10° WSW 05:27:53 74° SSE 05:32:00 10° ENE
STARLINK-1190 3.0 05:26:30 11° WNW 05:29:37 84° NNE 05:32:52 10° ESE
STARLINK-1084 3.7 05:27:30 10° WSW 05:31:34 78° SSE 05:35:38 10° ENE
ATLAS CENTAUR R/B 3.4 05:28:55 10° WNW 05:31:41 16° NNW 05:34:20 10° NNE
ALOS 2.9 05:28:33 10° N 05:32:44 33° WNW 05:36:54 10° SW
STARLINK-1121 3.7 05:28:40 10° WSW 05:32:47 78° SSE 05:36:54 10° ENE
Cosmos 1315 Rocket 3.4 05:29:06 10° S 05:33:00 62° E 05:36:53 10° NNE
Cosmos 2016 Rocket 4.4 05:27:57 10° NNW 05:33:46 42° W 05:39:37 10° SSW
Cosmos 1606 3.2 05:31:20 10° S 05:35:06 65° E 05:38:52 10° NNE
Cosmos 1980 Rocket 4.3 05:32:28 10° N 05:36:38 21° NE 05:40:46 10° E
CZ-2C R/B 4.2 05:34:22 10° NNW 05:37:03 14° NW 05:39:43 10° W
STARLINK-1106 3.7 05:33:41 10° WSW 05:37:47 82° SSE 05:41:55 10° ENE
CZ-2C R/B 4.4 05:34:52 10° SSE 05:39:12 58° ENE 05:43:36 10° N
Cosmos 841 Rocket 4.0 05:36:28 10° NNW 05:41:41 67° ENE 05:46:54 10° SSE
Cosmos 1400 Rocket 3.2 05:38:39 10° SW 05:42:30 42° WNW 05:46:25 10° N
FENGYUN 3A 4.3 05:37:36 10° N 05:42:31 35° WNW 05:47:24 10° SW
STARLINK-1112 3.7 05:38:34 10° WSW 05:42:41 86° SSE 05:46:49 10° ENE
NOAA 6 4.2 05:37:58 10° N 05:43:02 55° WNW 05:48:04 10° SW
Cosmos 1633 4.4 05:41:58 10° WNW 05:43:41 13° W 05:45:23 10° WSW
Cosmos 1470 Rocket 3.6 05:39:17 10° NNW 05:43:44 69° W 05:48:11 10° S
Sich 1 4.1 05:40:28 10° NW 05:43:55 24° W 05:47:23 10° SW
ATLAS 2AS CENTAUR R/B 3.0 05:37:41 10° NW 05:45:27 84° NE 05:52:33 10° SE
Cosmos 192 4.5 05:42:16 10° NNW 05:47:05 55° WSW 05:51:51 10° S
Meteor 2-20 4.4 05:41:29 10° SSW 05:47:34 80° W 05:53:42 10° N
ADEOS Rocket 3.5 05:41:49 10° S 05:47:56 49° W 05:54:47 10° NNW
